This is the latest recevied weather packets stored in our database for station/object KB1QVF. If no packets are shown the sender has not sent any weather packets the latest 10 day(s).
| Time | Temp. | Humidity | Pressure | Rain* | Wind** | Luminosity | Snow |
|---|---|---|---|---|---|---|---|
| 1777403402 | 19.44° C | 32% | 1022.1 hPa | 0 mm | - | 646 W/m² | - |
| 1777403097 | 19.44° C | 32% | 1022 hPa | 0 mm | - | 677 W/m² | - |
| 1777402793 | 18.33° C | 34% | 1022 hPa | 0 mm | - | 691 W/m² | - |
| 1777402490 | 18.33° C | 34% | 1022 hPa | 0 mm | - | 698 W/m² | - |
| 1777402188 | 17.78° C | 35% | 1022.3 hPa | 0 mm | - | 710 W/m² | - |
| 1777401882 | 18.33° C | 34% | 1022.4 hPa | 0 mm | - | 715 W/m² | - |
| 1777401582 | 18.89° C | 35% | 1022.1 hPa | 0 mm | - | 672 W/m² | - |
| 1777401278 | 17.78° C | 38% | 1022.5 hPa | 0 mm | - | 708 W/m² | - |
| 1777400973 | 18.33° C | 35% | 1022.4 hPa | 0 mm | - | 678 W/m² | - |
| 1777400670 | 18.33° C | 38% | 1022.5 hPa | 0 mm | - | 736 W/m² | - |
| 1777400368 | 18.33° C | 36% | 1022.6 hPa | 0 mm | - | 516 W/m² | - |
| 1777400062 | 18.33° C | 39% | 1022.6 hPa | 0 mm | - | 566 W/m² | - |
| 1777399760 | 18.89° C | 34% | 1022.7 hPa | 0 mm | - | 667 W/m² | - |
| 1777399457 | 18.89° C | 34% | 1022.8 hPa | 0 mm | - | 728 W/m² | - |
| 1777399155 | 18.89° C | 34% | 1022.9 hPa | 0 mm | - | 761 W/m² | - |
| 1777398851 | 18.33° C | 36% | 1022.9 hPa | 0 mm | - | 761 W/m² | - |
| 1777398549 | 18.89° C | 38% | 1022.9 hPa | 0 mm | - | 763 W/m² | - |
| 1777398244 | 18.89° C | 35% | 1022.8 hPa | 0 mm | - | 772 W/m² | - |
| 1777397942 | 18.89° C | 42% | 1022.8 hPa | 0 mm | - | 790 W/m² | - |
| 1777397637 | 17.78° C | 39% | 1022.6 hPa | 0 mm | - | 783 W/m² | - |
| 1777397334 | 18.89° C | 39% | 1022.8 hPa | 0 mm | - | 794 W/m² | - |
| 1777397031 | 18.89° C | 38% | 1022.9 hPa | 0 mm | - | 785 W/m² | - |
| 1777396728 | 18.33° C | 40% | 1022.9 hPa | 0 mm | - | 795 W/m² | - |
| 1777396424 | 18.33° C | 41% | 1022.9 hPa | 0 mm | - | 796 W/m² | - |
| 1777396121 | 19.44° C | 39% | 1022.9 hPa | 0 mm | - | 792 W/m² | - |
* Rain latest hour (hover to see other rain measurements)
** Current wind speed in m/s (hover to see current wind gust speed)